Probability
0 0 0 0 0 0 0 0 0 0 0 0 0 0 0 0 0 0 0 0 0 0 0 0 0 0 0 0 0 0 0 0 0 0 0 0 0 0 0 0 0 0 0
0 0 0 0 0 0 0 0 0 0 0 0 0 0 0 0 0 0 0 0 0 0 0 0 0 0 0 0 0 0 0 0 0 0 0 0 0 0 0 0 0 0 0
0 0 0 0 0 0 0 0 0 0 0 0 0 0 0 0 0 0 0 0 0 0 0 0 0 0 0 0 0 0 0 0 0 0 0 0 0 0 0 0 0 0 0
0 0 0 0 0 0 0 0 0 0 0 0 0 0 0 0 0 0 0 0 0 0 0 0 0 0 0 0 0 0 0 0 0 0 0 0 0 0 0 0 0 0 0
0 0 0 0 0 0 0 0 0 0 0 0 0 0 0 0 0 0 0 0 0 0 0 0 0 0 0 0 0 0 0 0 0 0 0 0 0 0 0 0 0 0 0
0 0 0 0 0 0 0 0 0 0 0 0 0 0 0 0 0 0 0 0 0 0 0 0 0 0 0 0 0 0 0 0 0 0 0 0 0 0 0 0 0 0 0
0 0 0 0 0 0 0 0 0 0 0 0 0 0 0 0 0 0 0 0 0 0 0 0 0 0 0 0 0 0 0 0 0 0 0 0 0 0 0 0 0 0 0
0 0 0 0 0 0 0 0 0 0 0 0 0 0 0 0 0 0 0 0 0 0 0 0 0 0 0 0 0 0 0 0 0 0 0 0 0 0 0 0 0 0 0
0 0 0 0 0 0 0 0 0 0 0 0 0 0 0 0 0 0 0 0 0 0 0 0 0 0 0 0 0 0 0 0 0 0 0 0 0 0 0 0 0 0 0
0 0 0 0 0 0 0 0 0 0 0 0 0 0 0 0 0 0 0 0 0 0 0 0 0 0 0 0 0 0 0 0 0 0 0 0 0 0 0 0 0 0 0
0 0 0 0 0 0 0 0 0 0 0 0 0 0 0 0 0 0 0 0 0 0 0 0 0 0 0 0 0 0 0 0 0 0 0 0 0 0 0 0 0 0 0
0 0 0 0 0 0 0 0 0 0 0 0 0 0 0 0 0 0 0 0 0 0 0 0 0 0 0 0 0 0 0 0 0 0 0 0 0 0 0 0 0 0 0
0 0 0 0 0 0 0 0 0 0 0 0 0 0 0 0 0 0 0 0 0 0 0 0 0 0 0 0 0 0 0 0 0 0 0 0 0 0 0 0 0 0 0
0 0 0 0 0 0 0 0 0 0 0 0 0 0 0 0 0 0 0 0 0 0 0 0 0 0 0 0 0 0 0 0 0 0 0 0 0 0 0 0 0 0 0
0 0 0 0 0 0 0 0 0 0 0 0 0 0 0 0 0 0 0 0 0 0 0 0 0 0 0 0 0 0 0 0 0 0 0 0 0 0 0 0 0 0 0
0 0 0 0 0 0 0 0 0 0 0 0 0 0 0 0 0 0 0 0 0 0 0 0 0 0 0 0 0 0 0 0 0 0 0 0 0 0 0 0 0 0 0
0 0 0 0 0 0 0 0 0 0 0 0 0 0 0 0 0 0 0 0 0 0 0 0 0 0 0 0 0 0 0 0 0 0 0 0 0 0 0 0 0 0 0
0 0 0 0 0 0 0 0 0 0 0 0 0 0 0 0 0 0 0 0 0 0 0 0 0 0 0 0 0 0 0 0 0 0 0 0 0 0 0 0 0 0 0
0 0 0 0 0 0 0 0 0 0 0 0 0 0 0 0 0 0 0 0 0 0 0 0 0 0 0 0 0 0 0 0 0 0 0 0 0 0 0 0 0 0 0
0 0 0 0 0 0 0 0 0 0 0 0 0 0 0 0 0 0 0 0 0 0 0 0 0 0 0 0 0 0 0 0 0 0 0 0 0 0 0 0 0 0 0
0 0 0 0 0 0 0 0 0 0 0 0 0 0 0 0 0 0 0 0 0 0 0 0 0 0 0 0 0 0 0 0 0 0 0 0 0 0 0 0 0 0 0
0 0 0 0 0 0 0 0 0 0 0 0 0 0 0 0 0 0 0 0 0 0 0 0 0 0 0 0 0 0 0 0 0 0 0 0 0 0 0 0 0 0 0
0 0 0 0 0 0 0 0 0 0 0 0 0 0 0 0 0 0 0 0 0 0 0 0 0 0 0 0 0 0 0 0 0 0 0 0 0 0 0 0 0 0 0
0 0 0 0 0 0 0 0 0 0 0 0 0 0 0 0 0 0 0 0 0 0 0 0 0 0 0 0 0 0 0 0 0 0 0 0 0 0 0 0 0 0 0
0 0 0 0 0 0 0 0 0 0 0 0 0 0 0 0 0 0 0 0 0 0 0 0 0 0 0 0 0 0 0 0 0 0 0 0 0 0 0 0 0 0 0
0 0 0 0 0 0 0 0 0 0 0 0 0 0 0 0 0 0 0 0 0 0 0 0 0 0 0 0 0 0 0 0 0 0 0 0 0 0 0 0 0 0 0
Wind_Speed
12 9 10 10 10 11 13 16 16 15 13 11 11 10 10 8 7 7 8 9 8 9 7 5 5 5 4 4 4 3 2 1 1 2 2 2 2 2 1 1 1 1 2
8 8 8 9 12 14 16 16 17 17 16 13 12 8 7 5 6 5 7 9 9 9 8 8 6 6 4 5 4 4 3 1 1 2 2 2 3 2 1 1 0 1 1
12 9 8 10 11 13 16 15 17 17 17 13 8 6 4 4 5 6 7 8 10 10 9 9 7 6 6 5 5 5 5 3 1 1 3 3 3 3 3 1 1 1 1
9 8 8 8 11 13 12 13 15 15 15 14 13 14 11 10 10 8 7 8 9 9 9 9 8 7 6 6 6 5 4 5 3 1 1 2 3 2 2 3 2 2 2
9 8 8 9 9 9 10 11 12 13 13 15 16 15 11 8 5 5 8 8 7 8 9 9 8 8 6 7 6 6 5 4 4 4 3 2 1 1 2 3 4 3 3
6 6 5 5 5 6 7 9 11 12 13 15 15 15 13 10 9 8 9 7 5 6 8 8 8 8 7 7 7 6 7 5 4 4 4 4 3 3 3 4 4 4 3
5 5 5 5 6 7 8 9 11 11 12 14 14 14 13 13 13 11 10 8 6 6 9 8 8 7 7 7 6 6 6 6 6 5 4 4 3 3 3 3 3 3 3
6 6 6 6 6 7 8 9 11 11 12 13 13 11 11 9 8 9 8 9 8 8 9 9 9 8 8 7 6 5 5 5 5 6 5 3 3 3 4 4 3 2 3
6 6 5 6 6 7 8 9 10 9 11 11 10 10 10 9 9 8 7 7 6 6 8 9 8 8 8 8 7 5 5 5 5 5 5 4 3 3 3 3 4 4 3
5 5 5 5 5 5 5 6 7 8 8 9 9 8 9 9 8 8 8 8 7 7 8 8 8 7 7 7 7 5 5 5 5 4 5 4 3 3 3 3 3 4 4
7 6 5 4 5 5 5 6 6 7 7 8 8 8 8 8 8 7 8 8 7 8 8 8 8 8 7 7 7 6 6 6 5 4 5 5 4 3 3 3 3 4 4
5 5 5 5 5 5 6 6 7 7 7 8 8 8 7 7 8 7 7 7 8 7 8 7 7 7 7 7 8 7 7 6 6 5 5 5 4 4 4 4 4 4 5
5 4 4 5 6 6 6 6 7 7 7 7 8 8 8 8 8 7 7 7 7 7 7 7 7 7 7 7 7 6 6 6 6 6 6 5 5 5 4 4 5 4 4
5 5 5 5 5 6 6 7 7 7 7 8 8 8 8 8 7 7 7 7 7 7 7 7 6 6 6 6 6 5 5 5 4 4 5 5 6 6 5 5 5 4 4
6 7 7 6 6 6 6 6 7 7 7 8 8 7 7 7 6 6 6 6 6 6 6 6 5 5 5 5 6 5 5 5 4 3 4 4 6 8 6 5 4 4 4
8 8 8 7 8 8 8 7 7 7 8 8 7 7 7 7 7 6 6 6 6 5 5 5 5 5 4 7 9 7 5 4 4 4 3 3 5 7 9 10 9 7 5
10 10 10 10 9 9 9 9 8 8 8 8 7 7 7 7 7 7 7 6 6 5 5 5 5 4 4 6 7 7 5 4 3 3 3 2 3 5 3 7 9 8 11
9 9 9 8 7 7 7 8 8 9 8 8 7 7 8 7 7 7 6 6 5 5 5 4 4 3 3 5 5 6 4 3 2 2 3 3 3 3 4 3 4 5 6
10 9 9 7 8 9 10 10 9 9 8 8 8 8 8 8 8 7 6 5 5 4 4 4 4 4 2 3 4 5 3 2 1 1 1 2 3 7 8 4 4 5 5
7 6 6 7 9 9 11 11 10 10 9 9 8 8 8 8 8 7 6 4 5 5 5 4 3 4 2 2 4 4 3 2 1 0 1 3 4 8 8 3 3 5 5
7 7 8 8 9 11 12 11 10 9 8 8 8 8 7 7 7 6 5 6 6 6 5 5 3 3 2 3 3 3 2 2 1 1 1 2 7 8 9 7 3 7 6
6 8 8 7 8 10 12 11 9 8 9 10 9 8 7 7 7 8 6 6 7 6 5 4 3 2 2 2 2 2 1 1 1 1 2 3 6 7 8 7 8 10 8
7 7 9 9 7 8 11 12 10 11 11 11 10 9 8 7 7 8 8 6 5 5 4 3 3 1 1 1 2 2 2 2 1 0 3 4 6 6 5 7 9 7 3
7 8 11 11 9 7 7 10 12 12 12 12 10 9 9 8 6 5 5 5 5 4 4 3 3 2 1 1 0 0 1 2 2 2 3 5 6 4 5 6 5 3 3
6 8 11 12 11 10 10 11 12 13 13 11 10 8 8 8 7 5 4 4 3 5 5 4 3 3 1 1 1 1 0 0 1 1 1 1 2 2 2 2 3 3 3
8 9 10 11 11 11 11 10 10 13 14 11 9 7 7 6 6 7 6 7 6 8 7 6 4 2 2 2 3 3 4 4 3 2 1 1 2 2 3 3 3 3 3
Wind_Direction
238 227 213 206 197 192 190 191 192 188 181 184 186 188 195 192 192 193 189 187 183 178 176 175 168 167 170 170 157 139 127 101 92 78 13 356 12 36 37 30 43 35 32
243 230 213 199 197 196 195 193 193 188 187 190 190 190 181 184 188 185 189 189 185 181 182 178 176 174 166 161 161 148 138 123 103 123 93 353 338 339 7 357 13 348 353
232 230 214 205 200 200 197 195 194 190 190 183 168 149 138 136 170 189 194 193 188 184 183 182 176 175 172 176 176 166 157 159 143 128 143 153 239 297 313 311 315 315 310
228 225 215 204 202 204 198 195 191 189 185 176 176 177 183 189 192 187 188 185 187 186 185 180 179 179 177 176 177 172 164 151 164 161 135 157 163 174 296 308 303 298 278
222 222 214 206 201 196 190 189 184 184 180 180 183 185 190 189 167 161 173 183 187 187 185 182 181 181 181 180 173 169 171 167 166 168 161 146 113 151 182 271 302 310 278
215 214 208 189 186 179 178 177 178 181 179 182 184 188 187 173 164 170 179 183 182 185 187 183 182 183 181 181 180 177 176 178 170 169 167 166 170 187 185 225 259 281 285
207 207 201 191 183 175 175 175 176 180 180 182 186 190 188 180 181 179 182 180 179 186 191 184 184 184 185 180 174 174 179 179 179 183 189 188 189 169 169 187 237 266 289
209 210 205 194 184 178 174 173 177 178 179 183 187 186 182 182 185 182 180 185 189 191 184 184 185 184 179 176 173 176 182 179 186 190 188 190 197 180 175 176 177 265 291
214 211 200 187 180 175 177 176 174 174 179 182 179 178 179 180 181 179 178 182 181 176 176 180 182 181 178 175 171 180 184 179 189 191 191 195 197 189 190 182 173 182 254
206 200 189 181 174 171 166 165 169 174 174 176 177 179 181 181 176 173 178 179 175 169 171 178 179 178 177 174 173 177 177 179 190 184 188 200 198 193 190 192 195 191 204
200 192 183 171 161 154 156 160 163 161 165 172 173 171 174 172 169 173 179 175 170 169 175 179 178 178 178 175 177 182 176 185 192 188 194 209 194 194 197 193 199 207 200
189 180 172 160 160 164 164 166 165 166 169 167 166 169 167 165 169 173 173 168 169 173 175 172 173 178 179 177 181 185 183 187 195 199 198 213 199 206 205 203 213 218 213
179 172 171 175 177 175 172 171 170 169 163 160 161 163 165 168 172 171 167 165 166 167 166 167 176 180 179 179 184 184 184 192 198 197 202 210 199 218 219 217 223 227 230
181 181 189 191 184 180 176 173 172 165 159 158 161 166 171 172 170 164 161 162 162 162 167 173 175 173 170 172 175 176 183 191 196 200 206 207 206 219 223 226 229 229 232
193 196 196 192 184 179 176 172 168 164 160 160 165 170 165 158 153 152 153 151 153 158 160 157 155 155 160 172 173 177 180 183 195 209 216 218 224 232 233 234 228 221 230
208 203 197 190 189 186 178 170 168 164 159 163 165 156 151 149 150 149 145 143 143 141 142 151 154 158 173 188 187 175 174 182 192 213 227 235 240 253 264 269 267 255 246
208 202 199 196 191 185 175 172 166 156 157 159 154 152 150 148 148 144 141 145 147 142 145 152 155 165 180 182 183 179 164 178 193 206 218 240 252 269 267 280 288 287 284
210 208 202 195 183 167 159 151 148 152 155 155 153 152 149 147 143 141 144 143 140 146 149 150 153 148 162 171 175 171 153 165 187 203 212 230 255 268 273 251 263 265 271
205 204 194 179 162 159 152 144 148 151 154 158 158 157 152 147 145 147 146 141 137 134 135 137 138 137 147 160 158 141 134 152 195 221 227 241 248 280 294 283 271 277 276
200 185 160 149 154 156 147 147 153 156 165 163 156 150 148 147 150 148 139 130 130 128 122 114 121 128 130 129 128 125 132 147 190 263 272 284 291 296 304 284 264 277 277
189 168 155 158 162 152 148 150 155 166 157 140 135 135 137 138 137 128 122 123 118 113 110 106 96 102 110 118 115 109 121 152 168 225 264 276 302 309 310 308 278 288 307
166 158 155 156 151 152 149 150 157 146 132 130 129 128 127 125 124 120 116 116 119 115 112 107 92 71 72 87 102 90 60 79 154 231 250 277 311 319 320 319 315 320 331
166 155 150 143 144 155 152 149 146 137 132 127 126 123 117 112 121 125 125 119 117 119 121 119 116 95 54 43 51 40 18 8 43 280 319 329 333 335 331 326 327 334 337
160 148 144 145 149 149 139 136 138 135 130 129 127 125 121 114 107 109 120 124 129 127 128 131 131 118 78 27 17 51 26 15 21 25 356 355 352 352 337 334 337 336 311
153 152 153 151 147 138 130 133 137 133 128 127 126 123 120 121 113 103 105 119 134 148 146 153 151 144 160 243 346 52 114 135 142 86 33 4 348 339 330 325 318 315 317
149 144 140 139 138 136 133 136 137 136 132 131 130 128 126 122 120 115 95 82 100 105 105 115 118 112 99 50 28 18 17 9 15 45 16 326 317 307 306 308 309 307 308